TDRS 6

Last updated on July 6, 2021, 3:26 p.m. UTC

1 22314U 93003B   21186.91588774 -.00000294  00000-0  00000+0 0  9999
2 22314  14.0995  10.6384 0009375  99.5018  97.8151  1.00276981104257
UTC
Height (km)
Latitude
Longitude
Inclination
Orbital Period
UTC large
Height (km)
Speed (km/s)
/
Latitude / Longitude
Inclination (degrees)
Orbital Period (minutes)
Azimuth
Elevation
Range (km)
Doppler Factor
iOS Compass Heading
iOS Angle